Regional Weather Roundup
Issued by NWS

Home | Current Version | Previous Version | Graphics & Text | Print | Product List | Glossary On
Versions: 1 2 3 4 5 6 7 8 9 10 11 12 13 14 15 16 17 18 19 20 21 22 23 24 25 26 27 28 29 30 31 32 33 34 35 36 37 38 39 40 41 42 43 44 45 46 47 48 49 50
519
ASUS43 KLSX 201357
RWRMO

WEATHER SUMMARY FOR MISSOURI
NATIONAL WEATHER SERVICE SPRINGFIELD MO
800 AM CST TUE FEB 20 2018

NOTE: "FAIR" INDICATES FEW OR NO CLOUDS BELOW 12,000 FEET WITH NO
       SIGNIFICANT WEATHER AND/OR OBSTRUCTIONS TO VISIBILITY.
       CURRENT SKY AND/OR WEATHER CONDITIONS ARE NOT AVAILABLE FOR
       CHILLICOTHE AND FARMINGTON.

MOZ001>031-035>038-043-044-053-054-201500-
...NORTHERN AND WESTERN MISSOURI...

CITY           SKY/WX    TMP DP  RH WIND       PRES   REMARKS
KANSAS CTY INT SLEET     28  27  93 NW13G24   29.96R FOG     WCI  18
LEE`S SUMMIT   FRZ RAIN  30  30 100 NW23G29   29.96R FOG     WCI  17
ST JOSEPH      CLOUDY    27  27 100 NW13      29.99R FOG     WCI  16
CHILLICOTHE      N/A     32  31  96 NW7       29.91R WCI  26

$$
MOZ066>068-077>081-088>096-101>105-201500-
...SOUTHWEST MISSOURI...

CITY           SKY/WX    TMP DP  RH WIND       PRES   REMARKS
SPRINGFIELD    CLOUDY    65  62  90 S15       29.86R
BRANSON        LGT RAIN  64  64 100 S12G21    29.92R

$$
MOZ032>034-039>042-045>050-055>058-069>072-201500-
...CENTRAL MISSOURI...

CITY           SKY/WX    TMP DP  RH WIND       PRES   REMARKS
COLUMBIA       NOT AVBL
WARRENSBURG    LGT RAIN  32  32 100 NW12G20   29.88R WCI  23

$$
MOZ051-052-059>065-201500-
...EAST CENTRAL MISSOURI...

CITY           SKY/WX    TMP DP  RH WIND       PRES   REMARKS
ST LOUIS INTL  CLOUDY    68  59  73 S17G31    29.91R

$$
MOZ072>076-082>087-097>100-106>115-201500-
...SOUTH CENTRAL AND SOUTHEAST MISSOURI...

CITY           SKY/WX    TMP DP  RH WIND       PRES   REMARKS
CAPE GIRARDEAU NOT AVBL
WEST PLAINS    RAIN      64  62  93 S17G32    29.98R FOG

$$



USA.gov is the U.S. government's official web portal to all federal, state and local government web resources and services.